Weather History for York, PA

Change the Weather History Date:

Sunday, March 18, 2012

  Actual Average Record
Temperature  
Mean Temperature 58 °F -  
Max Temperature 69 °F 0 °F 78 °F (2011)
Min Temperature 46 °F - 18 °F (2007)
Degree Days  
Heating Degree Days 8    
Growing Degree Days 8 (Base 50)    
Moisture  
Dew Point 50 °F    
Average Humidity 89    
Maximum Humidity 100    
Minimum Humidity 54    
Precipitation  
Precipitation 0.00 in - - ()
Sea Level Pressure  
Sea Level Pressure 30.31 in    
Wind  
Wind Speed 4 mph (SSE)    
Max Wind Speed 8 mph    
Max Gust Speed -    
Visibility 5 miles    
Events      
Averages and records for this station are not official NWS values.
T = Trace of Precipitation, MM = Missing Value Source: NWS Daily Summary

Daily Weather History Graph

Daily Weather History Graph

Search for Another Location

Airport:

Trip Planner

Search our weather history database for the weather conditions in past years. The results will help you decide how hot, cold, wet, or windy it might be!

Date:

Astronomy

Mar. 18, 2012 Rise Set
Actual Time 7:13 AM EDT 7:17 PM EDT
Civil Twilight 6:46 AM EDT 7:44 PM EDT
Nautical Twilight 6:14 AM EDT 8:16 PM EDT
Astronomical Twilight 5:42 AM EDT 8:48 PM EDT
Moon 4:50 AM EDT (3/18) 3:42 PM EDT (3/18)
Length of Visible Light 12h 58m
Length of Day
12h 04m
Waning Crescent, 15% of the Moon is Illuminated
Mar 18
Waning Crescent
Mar 22
New
Mar 30
First Quarter
Apr 6
Full
Apr 13
Last Quarter

Hourly Weather History & Observations

Time (EDT) Temp. Dew Point Humidity Pressure Visibility Wind Dir Wind Speed Gust Speed Precip Events Conditions
12:53 AM 48.0 °F 46.9 °F 96% 30.32 in 3.0 mi Calm Calm - N/A   Clear
1:53 AM 46.9 °F 46.0 °F 97% 30.32 in 3.0 mi East 3.5 mph - N/A   Clear
2:39 AM 50.0 °F 48.2 °F 94% 30.32 in 4.0 mi Calm Calm - N/A   Scattered Clouds
2:42 AM 50.0 °F 48.2 °F 94% 30.32 in 4.0 mi SE 3.5 mph - N/A   Mostly Cloudy
2:53 AM 51.1 °F 50.0 °F 96% 30.32 in 4.0 mi SE 3.5 mph - N/A   Mostly Cloudy
3:24 AM 51.8 °F 50.0 °F 94% 30.31 in 3.0 mi SE 6.9 mph - N/A   Overcast
3:45 AM 51.8 °F 51.8 °F 100% 30.31 in 2.5 mi SE 5.8 mph - N/A   Overcast
3:53 AM 51.1 °F 51.1 °F 100% 30.31 in 2.5 mi ESE 3.5 mph - N/A   Overcast
4:08 AM 50.0 °F 50.0 °F 100% 30.31 in 2.0 mi SE 4.6 mph - N/A   Overcast
4:16 AM 50.0 °F 50.0 °F 100% 30.31 in 1.8 mi SE 5.8 mph - N/A   Overcast
4:35 AM 50.0 °F 50.0 °F 100% 30.32 in 2.0 mi SE 5.8 mph - N/A   Overcast
4:53 AM 50.0 °F 50.0 °F 100% 30.33 in 2.0 mi SE 5.8 mph - N/A   Overcast
5:11 AM 50.0 °F 50.0 °F 100% 30.32 in 1.8 mi SE 4.6 mph - N/A   Overcast
5:53 AM 50.0 °F 50.0 °F 100% 30.33 in 1.8 mi SE 5.8 mph - N/A   Overcast
6:10 AM 50.0 °F 50.0 °F 100% 30.33 in 2.5 mi SE 4.6 mph - N/A   Overcast
6:30 AM 48.2 °F 48.2 °F 100% 30.34 in 2.0 mi Calm Calm - N/A   Overcast
6:53 AM 48.9 °F 48.9 °F 100% 30.34 in 1.5 mi SSE 3.5 mph - N/A   Overcast
7:32 AM 48.2 °F 48.2 °F 100% 30.35 in 0.8 mi SSE 6.9 mph - N/A   Overcast
7:42 AM 48.2 °F 48.2 °F 100% 30.34 in 1.0 mi SE 8.1 mph - N/A   Overcast
7:53 AM 48.9 °F 48.9 °F 100% 30.35 in 1.0 mi SE 8.1 mph - N/A   Overcast
8:09 AM 48.2 °F 48.2 °F 100% 30.34 in 1.2 mi SSE 6.9 mph - N/A   Overcast
8:53 AM 50.0 °F 48.9 °F 96% 30.36 in 1.8 mi Variable 3.5 mph - N/A   Overcast
9:00 AM 50.0 °F 48.2 °F 94% 30.35 in 2.5 mi South 4.6 mph - N/A   Overcast
9:44 AM 50.0 °F 48.2 °F 94% 30.37 in 3.0 mi Calm Calm - N/A   Overcast
9:53 AM 50.0 °F 48.9 °F 96% 30.38 in 3.0 mi Calm Calm - N/A   Overcast
10:53 AM 52.0 °F 50.0 °F 93% 30.36 in 6.0 mi Calm Calm - N/A   Overcast
11:00 AM 51.8 °F 50.0 °F 94% 30.35 in 6.0 mi Variable 3.5 mph - N/A   Overcast
11:23 AM 53.6 °F 50.0 °F 88% 30.35 in 8.0 mi South 4.6 mph - N/A   Overcast
11:46 AM 55.4 °F 50.0 °F 82% 30.35 in 10.0 mi SSW 5.8 mph - N/A   Overcast
11:53 AM 54.0 °F 50.0 °F 86% 30.35 in 10.0 mi SSW 5.8 mph - N/A   Overcast
12:49 PM 57.2 °F 50.0 °F 77% 30.32 in 10.0 mi Variable 3.5 mph - N/A   Partly Cloudy
12:53 PM 57.9 °F 50.0 °F 75% 30.33 in 10.0 mi Variable 3.5 mph - N/A   Partly Cloudy
1:53 PM 63.0 °F 51.1 °F 65% 30.31 in 10.0 mi South 3.5 mph - N/A   Clear
2:53 PM 66.0 °F 51.1 °F 59% 30.27 in 10.0 mi Variable 5.8 mph - N/A   Clear
4:53 PM 69.1 °F 52.0 °F 54% 30.22 in 10.0 mi Variable 6.9 mph - N/A   Clear
5:53 PM 68.0 °F 52.0 °F 56% 30.21 in 10.0 mi Variable 3.5 mph - N/A   Clear
6:53 PM 64.9 °F 52.0 °F 63% 30.20 in 10.0 mi South 6.9 mph - N/A   Clear
7:53 PM 63.0 °F 51.1 °F 65% 30.20 in 10.0 mi South 4.6 mph - N/A   Clear
8:53 PM 54.0 °F 48.9 °F 83% 30.21 in 10.0 mi Calm Calm - N/A   Clear
9:53 PM 55.9 °F 51.1 °F 84% 30.22 in 10.0 mi SE 4.6 mph - N/A   Clear
11:53 PM 54.0 °F 51.1 °F 90% 30.22 in 8.0 mi Calm Calm - N/A   Clear